Weather History for Bradford, PA

Change the Weather History Date:

Wednesday, October 9, 2013

  Actual Average Record
Temperature  
Mean Temperature 48 °F 48 °F  
Max Temperature 64 °F 59 °F 78 °F (2011)
Min Temperature 32 °F 37 °F 22 °F (2001)
Degree Days  
Heating Degree Days 17 12  
Month to date heating degree days 53 99  
Since 1 July heating degree days 429 516  
Cooling Degree Days 0 0  
Month to date cooling degree days 9 0  
Year to date cooling degree days 334 192  
Moisture  
Dew Point 34 °F    
Average Humidity 59    
Maximum Humidity 92    
Minimum Humidity 26    
Precipitation  
Precipitation 0.00 in 0.12 in 1.08 in (1992)
Month to date precipitation 1.18 1.08  
Year to date precipitation 25.12 34.95  
Sea Level Pressure  
Sea Level Pressure 30.35 in    
Wind  
Wind Speed 2 mph (SE)    
Max Wind Speed 13 mph    
Max Gust Speed 17 mph    
Visibility 8 miles    
Events Fog    
T = Trace of Precipitation, MM = Missing Value Source: NWS Daily Summary

Daily Weather History Graph

Daily Weather History Graph

Search for Another Location

Airport:

Trip Planner

Search our weather history database for the weather conditions in past years. The results will help you decide how hot, cold, wet, or windy it might be!

Date:

Astronomy

Oct. 09, 2013 Rise Set
Actual Time 7:20 AM EDT 6:42 PM EDT
Civil Twilight 6:52 AM EDT 7:10 PM EDT
Nautical Twilight 6:20 AM EDT 7:42 PM EDT
Astronomical Twilight 5:47 AM EDT 8:14 PM EDT
Moon 12:17 PM EDT (10/9) 10:11 PM EDT (10/9)
Length of Visible Light 12h 17m
Length of Day
11h 22m
Waxing Crescent, 25% of the Moon is Illuminated
Oct 9
Waxing Crescent
Oct 11
First Quarter
Oct 18
Full
Oct 26
Last Quarter
Nov 3
New

Hourly Weather History & Observations

Time (EDT) Temp. Dew Point Humidity Pressure Visibility Wind Dir Wind Speed Gust Speed Precip Events Conditions
12:53 AM 37.9 °F 35.1 °F 89% 30.35 in 10.0 mi Calm Calm - N/A   Clear
1:53 AM 37.9 °F 35.1 °F 89% 30.35 in 10.0 mi Calm Calm - N/A   Clear
2:53 AM 39.0 °F 35.1 °F 86% 30.35 in 10.0 mi Calm Calm - N/A   Clear
3:53 AM 35.1 °F 33.1 °F 92% 30.35 in 10.0 mi Calm Calm - N/A   Clear
4:53 AM 36.0 °F 33.1 °F 89% 30.36 in 10.0 mi Calm Calm - N/A   Clear
5:53 AM 36.0 °F 33.1 °F 89% 30.36 in 10.0 mi Calm Calm - N/A   Clear
6:53 AM 36.0 °F 33.1 °F 89% 30.37 in 10.0 mi Calm Calm - N/A   Clear
7:09 AM 34.0 °F 30.9 °F 89% 30.35 in 1.2 mi Calm Calm - N/A   Clear
7:14 AM 35.1 °F 32.0 °F 89% 30.35 in 0.2 mi Calm Calm - N/A Fog Fog
7:21 AM 33.1 °F 30.9 °F 92% 30.35 in 0.2 mi Calm Calm - N/A Fog Fog
7:25 AM 33.1 °F 30.0 °F 89% 30.36 in 1.2 mi Calm Calm - N/A   Partly Cloudy
7:27 AM 32.0 °F 30.0 °F 92% 30.36 in 3.0 mi Calm Calm - N/A   Partly Cloudy
7:53 AM 33.1 °F 30.0 °F 89% 30.40 in 10.0 mi Calm Calm - N/A   Clear
8:53 AM 39.0 °F 36.0 °F 89% 30.41 in 10.0 mi Calm Calm - N/A   Clear
9:53 AM 48.9 °F 39.9 °F 71% 30.40 in 10.0 mi ESE 6.9 mph - N/A   Clear
10:53 AM 54.0 °F 37.9 °F 55% 30.40 in 10.0 mi SE 6.9 mph - N/A   Clear
11:53 AM 57.0 °F 37.9 °F 49% 30.40 in 10.0 mi ESE 8.1 mph - N/A   Clear
12:53 PM 60.1 °F 36.0 °F 41% 30.37 in 10.0 mi SE 5.8 mph - N/A   Clear
1:53 PM 63.0 °F 33.1 °F 33% 30.35 in 10.0 mi SE 8.1 mph - N/A   Clear
2:53 PM 64.0 °F 32.0 °F 30% 30.32 in 10.0 mi ESE 5.8 mph - N/A   Clear
3:53 PM 64.0 °F 28.9 °F 27% 30.33 in 10.0 mi SE 6.9 mph - N/A   Clear
4:53 PM 64.0 °F 30.9 °F 29% 30.31 in 10.0 mi SE 4.6 mph - N/A   Clear
5:53 PM 61.0 °F 33.1 °F 35% 30.31 in 10.0 mi SSE 3.5 mph - N/A   Clear
6:53 PM 54.0 °F 39.0 °F 57% 30.32 in 10.0 mi Calm Calm - N/A   Clear
7:53 PM 51.1 °F 37.9 °F 61% 30.33 in 10.0 mi Calm Calm - N/A   Clear
8:53 PM 48.0 °F 36.0 °F 63% 30.32 in 10.0 mi Calm Calm - N/A   Clear
9:53 PM 45.0 °F 35.1 °F 68% 30.32 in 10.0 mi Calm Calm - N/A   Clear
10:53 PM 42.1 °F 35.1 °F 76% 30.32 in 10.0 mi Calm Calm - N/A   Clear
11:53 PM 42.1 °F 34.0 °F 73% 30.31 in 10.0 mi Calm Calm - N/A   Clear